HULIANWANG DIGUI-102

导读 | 豆包AI

HULIANWANG DIGUI-102(互联网·地鬼-102)是中国于2025年11月10日发射的低轨通信卫星,隶属于中国国家级低轨卫星互联网星座工程,是我国卫星互联网组网建设的重要组成部分。该卫星依托低轨轨道优势,具备低延迟、广覆盖特点,可填补地面通信盲区,为远洋航行、偏远地区、应急救援等场景提供稳定宽带连接,助力我国构建空天地一体化通信网络。

基本信息
目录编号:
66418
目录名称:
HULIANWANG DIGUI-102
国际标识:
2025-258G
轨道中心:
EARTH
卫星名称:
HULIANWANG DIGUI-102
卫星全名:
HULIANWANG DIGUI-102
卫星状态:
在轨 (已飞行196 天)
发射日期:
2025-11-10 UTC
国别 :
中国 (CN)
星等 :
--
轨道信息
数据来源 国际轨道数据 AOE轨道数据
星历时间 2026-05-24T05:44:14+0800
1天前
查看轨道信息
2026-05-22T17:00:00+0800
2天前
查看轨道信息
半长轴 7527.469km 7527.47km
偏心率 0.000096 0.0000962
轨道倾角 50.003° 50.002°
近地点辐角 49.245° 44.009°
升交点赤经 22.517° 28.008°
平近点角 310.851° 186.208°
近地点 1148.609km 1148.608km
远地点 1150.055km 1150.058km
周期 108.326分钟 108.326分钟
每日圈数 13.293195 13.293192
详细信息
使用方式:
暂无
2D轨道图
3D轨道图
轨道高度分析图
轨道倾角分析图
轨道综合分析图
查看轨道综合分析图